{"data":{"norad_id":53539,"intl_designator":"2022-101N","name":"STARLINK-4123","alt_names":[],"object_type":"PAYLOAD","status":"ACTIVE","operator":null,"country":"US","launch_date":"2022-08-19","launch_site_code":"AFETR","launch_vehicle":null,"mission":null,"orbit_class":"UNKNOWN","rcs_meters":null,"size_class":null,"mass_kg":null,"dimensions":null,"purposes":["comms"],"wikipedia_slug":null,"has_3d_model":false,"image_url":null,"decayed_at":null,"tle_current":{"epoch":"2026-05-25T02:22:46.336224Z","epoch_age_seconds":73460,"freshness":"FRESH","line1":"1 53539U 22101N   26145.09914741  .00000416  00000+0  44192-4 0  9998","line2":"2 53539  53.2132  91.1048 0001355  70.6075 289.5064 15.08842570207705","mean_motion":15.0884257,"eccentricity":0.0001355,"inclination_deg":53.2132,"raan_deg":91.1048,"arg_perigee_deg":70.6075,"mean_anomaly_deg":289.5064,"bstar":4.4192e-5,"rev_number":20770,"period_min":95.437392119709,"perigee_km":538.79816178511,"apogee_km":540.67290524169,"semimajor_km":6917.8725335134,"source":"CELESTRAK","updated_at":"2026-05-25T13:38:17.441459Z"}}}